Location: Drocourt
(49.0571°N, 1.7669°E)
Time: 14:56:34
(UTC+00:00)

Vanguard 3 - Pass Details

Date: 17 April 2024
Orbit: 509 x 3233 km, 33.3° (Epoch: 23 May)

Event Time Altitude Azimuth Distance (km) Brightness Sun altitude
Rises 07:06:58 0° 246° (WSW) 4,859 10.6 20.2°
Reaches altitude 10° 07:11:45 10° 232° (SW) 3,321 9.9 21.0°
Maximum altitude 07:16:56 19° 191° (S) 2,127 9.4 21.8°
Drops below altitude 10° 07:20:44 10° 146° (SE) 2,318 10.3 22.5°
Sets 07:23:21 0° 127° (SE) 2,991 11.1 22.9°
